TimeEDT,TemperatureF,Dew PointF,Humidity,Sea Level PressureIn,VisibilityMPH,Wind Direction,Wind SpeedMPH,Gust SpeedMPH,PrecipitationIn,Events,Conditions,WindDirDegrees,DateUTC
12:53 AM,57.9,57.0,97,30.06,3.0,South,6.9,-,N/A,,Overcast,190,2012-10-04 04:53:00
1:12 AM,57.2,55.4,94,30.05,2.5,South,5.8,-,N/A,,Overcast,180,2012-10-04 05:12:00
1:53 AM,55.9,55.0,97,30.06,2.0,SSW,3.5,-,N/A,,Scattered Clouds,200,2012-10-04 05:53:00
2:28 AM,57.2,55.4,94,30.06,2.0,Calm,Calm,-,N/A,,Scattered Clouds,0,2012-10-04 06:28:00
2:40 AM,55.4,55.4,100,30.06,1.8,Calm,Calm,-,N/A,,Partly Cloudy,0,2012-10-04 06:40:00
2:53 AM,55.9,55.0,97,30.06,1.8,South,3.5,-,N/A,,Clear,180,2012-10-04 06:53:00
3:01 AM,53.6,53.6,100,30.06,2.0,South,5.8,-,N/A,,Clear,190,2012-10-04 07:01:00
3:31 AM,55.4,53.6,94,30.05,3.0,South,5.8,-,N/A,,Scattered Clouds,190,2012-10-04 07:31:00
3:53 AM,55.9,54.0,93,30.06,4.0,SSW,5.8,-,N/A,,Overcast,210,2012-10-04 07:53:00
4:53 AM,54.0,53.1,97,30.06,3.0,South,4.6,-,N/A,,Clear,190,2012-10-04 08:53:00
5:53 AM,54.0,52.0,93,30.07,3.0,SSW,5.8,-,N/A,,Partly Cloudy,200,2012-10-04 09:53:00
6:53 AM,55.0,53.1,93,30.07,4.0,SSW,5.8,-,N/A,,Mostly Cloudy,200,2012-10-04 10:53:00
7:53 AM,55.0,54.0,96,30.09,3.0,SSW,6.9,-,0.00,,Overcast,210,2012-10-04 11:53:00
8:53 AM,57.0,54.0,89,30.08,4.0,SSW,8.1,-,N/A,,Mostly Cloudy,210,2012-10-04 12:53:00
9:53 AM,60.1,55.0,83,30.09,7.0,SSW,9.2,-,N/A,,Clear,200,2012-10-04 13:53:00
10:53 AM,64.0,55.0,73,30.09,10.0,SSW,12.7,-,N/A,,Scattered Clouds,210,2012-10-04 14:53:00
11:53 AM,69.1,55.9,63,30.09,10.0,SW,10.4,19.6,N/A,,Partly Cloudy,220,2012-10-04 15:53:00
12:53 PM,71.1,55.0,57,30.06,10.0,SW,15.0,20.7,N/A,,Clear,220,2012-10-04 16:53:00
1:53 PM,73.9,54.0,50,30.06,10.0,SW,13.8,-,N/A,,Clear,220,2012-10-04 17:53:00
2:53 PM,75.9,52.0,43,30.03,10.0,SW,16.1,-,N/A,,Partly Cloudy,230,2012-10-04 18:53:00
3:53 PM,77.0,51.1,40,30.02,10.0,WSW,13.8,24.2,N/A,,Partly Cloudy,240,2012-10-04 19:53:00
4:53 PM,75.9,52.0,43,30.01,10.0,SW,11.5,20.7,N/A,,Partly Cloudy,230,2012-10-04 20:53:00
5:53 PM,75.9,52.0,43,29.99,10.0,SSW,13.8,20.7,N/A,,Overcast,200,2012-10-04 21:53:00
6:53 PM,75.0,52.0,44,29.99,10.0,SSW,9.2,-,N/A,,Overcast,200,2012-10-04 22:53:00
7:53 PM,73.0,53.1,49,30.01,10.0,WSW,9.2,-,0.00,,Overcast,250,2012-10-04 23:53:00
8:53 PM,66.2,57.2,73,30.05,10.0,WNW,18.4,28.8,N/A,,Overcast,290,2012-10-05 00:53:00
9:03 PM,62.6,57.2,82,30.06,2.5,West,13.8,32.2,0.06,Rain-Thunderstorm,Thunderstorms and Rain,280,2012-10-05 01:03:00
9:11 PM,60.8,57.2,88,30.06,1.8,West,16.1,21.9,0.12,Rain-Thunderstorm,Thunderstorms and Rain,260,2012-10-05 01:11:00
9:21 PM,60.8,57.2,88,30.04,2.0,West,9.2,-,0.18,Rain-Thunderstorm,Thunderstorms and Rain,270,2012-10-05 01:21:00
9:29 PM,60.8,57.2,88,30.04,7.0,West,6.9,-,0.18,Rain-Thunderstorm,Thunderstorms and Rain,260,2012-10-05 01:29:00
9:44 PM,60.8,57.2,88,30.05,8.0,WSW,9.2,-,N/A,Rain,Light Rain,250,2012-10-05 01:44:00
9:53 PM,61.0,57.9,90,30.04,7.0,West,5.8,-,0.18,Rain,Light Rain,260,2012-10-05 01:53:00
10:53 PM,60.1,57.0,90,30.05,8.0,WSW,8.1,-,0.01,Rain,Light Rain,250,2012-10-05 02:53:00
11:53 PM,57.9,54.0,87,30.07,10.0,West,11.5,-,0.00,,Overcast,270,2012-10-05 03:53:00